QPF
0.00 0.00 0.00 0.00 0.00 0.00 0.00 0.00 0.00 0.00 0.00 0.00 0.00 0.00 0.00 0.00 0.00 0.00 0.00 0.00 0.00 0.00 0.00 0.00 0.00 0.00 0.00 0.00 0.00 0.00 0.00 0.00 0.00 0.00 0.00 0.00 0.00 0.00 0.00 0.00 0.00 0.00 0.00 0.00
0.00 0.00 0.00 0.00 0.00 0.00 0.00 0.00 0.00 0.00 0.00 0.00 0.00 0.00 0.00 0.00 0.00 0.00 0.00 0.00 0.00 0.00 0.00 0.00 0.00 0.00 0.00 0.00 0.00 0.00 0.00 0.00 0.00 0.00 0.00 0.00 0.00 0.00 0.00 0.00 0.00 0.00 0.00 0.00
0.00 0.00 0.00 0.00 0.00 0.00 0.00 0.00 0.00 0.00 0.00 0.00 0.00 0.00 0.00 0.00 0.00 0.00 0.00 0.00 0.00 0.00 0.00 0.00 0.00 0.00 0.00 0.00 0.00 0.00 0.00 0.00 0.00 0.00 0.00 0.00 0.00 0.00 0.00 0.00 0.00 0.00 0.00 0.00
0.00 0.00 0.00 0.00 0.00 0.00 0.00 0.00 0.00 0.00 0.00 0.00 0.00 0.00 0.00 0.00 0.00 0.00 0.00 0.00 0.00 0.00 0.00 0.00 0.00 0.00 0.00 0.00 0.00 0.00 0.00 0.00 0.00 0.00 0.00 0.00 0.00 0.00 0.00 0.00 0.00 0.00 0.00 0.00
0.00 0.00 0.00 0.00 0.00 0.00 0.00 0.00 0.00 0.00 0.00 0.00 0.00 0.00 0.00 0.00 0.00 0.00 0.00 0.00 0.00 0.00 0.00 0.00 0.00 0.00 0.00 0.00 0.00 0.00 0.00 0.00 0.00 0.00 0.00 0.00 0.00 0.00 0.00 0.00 0.00 0.00 0.00 0.00
0.00 0.00 0.00 0.00 0.00 0.00 0.00 0.00 0.00 0.00 0.00 0.00 0.00 0.00 0.00 0.00 0.00 0.00 0.00 0.00 0.00 0.00 0.00 0.00 0.00 0.00 0.00 0.00 0.00 0.00 0.00 0.00 0.00 0.00 0.00 0.00 0.00 0.00 0.00 0.00 0.00 0.00 0.00 0.00
0.00 0.00 0.00 0.00 0.00 0.00 0.00 0.00 0.00 0.00 0.00 0.00 0.00 0.00 0.00 0.00 0.00 0.00 0.00 0.00 0.00 0.00 0.00 0.00 0.00 0.00 0.00 0.00 0.00 0.00 0.00 0.00 0.00 0.00 0.00 0.00 0.00 0.00 0.00 0.00 0.00 0.00 0.00 0.00
0.00 0.00 0.00 0.00 0.00 0.00 0.00 0.00 0.00 0.00 0.00 0.00 0.00 0.00 0.00 0.00 0.00 0.00 0.00 0.00 0.00 0.00 0.00 0.00 0.00 0.00 0.00 0.00 0.00 0.00 0.00 0.00 0.00 0.00 0.00 0.00 0.00 0.00 0.00 0.00 0.00 0.00 0.00 0.00
0.00 0.00 0.00 0.00 0.00 0.00 0.00 0.00 0.00 0.00 0.00 0.00 0.00 0.00 0.00 0.00 0.00 0.00 0.00 0.00 0.00 0.00 0.00 0.00 0.00 0.00 0.00 0.00 0.00 0.00 0.00 0.00 0.00 0.00 0.00 0.00 0.00 0.00 0.00 0.00 0.00 0.00 0.00 0.00
0.00 0.00 0.00 0.00 0.00 0.00 0.00 0.00 0.00 0.00 0.00 0.00 0.00 0.00 0.00 0.00 0.00 0.00 0.00 0.00 0.00 0.00 0.00 0.00 0.00 0.00 0.00 0.00 0.00 0.00 0.00 0.00 0.00 0.00 0.00 0.00 0.00 0.00 0.00 0.00 0.00 0.00 0.00 0.00
0.00 0.00 0.00 0.00 0.00 0.00 0.00 0.00 0.00 0.00 0.00 0.00 0.00 0.00 0.00 0.00 0.00 0.00 0.00 0.00 0.00 0.00 0.00 0.00 0.00 0.00 0.00 0.00 0.00 0.00 0.00 0.00 0.00 0.00 0.00 0.00 0.00 0.00 0.00 0.00 0.00 0.00 0.00 0.00
0.00 0.00 0.00 0.00 0.00 0.00 0.00 0.00 0.00 0.00 0.00 0.00 0.00 0.00 0.00 0.00 0.00 0.00 0.00 0.00 0.00 0.00 0.00 0.00 0.00 0.00 0.00 0.00 0.00 0.00 0.00 0.00 0.00 0.00 0.00 0.00 0.00 0.00 0.00 0.00 0.00 0.00 0.00 0.00
0.00 0.00 0.00 0.00 0.00 0.00 0.00 0.00 0.00 0.00 0.00 0.00 0.00 0.00 0.00 0.00 0.00 0.00 0.00 0.00 0.00 0.00 0.00 0.00 0.00 0.00 0.00 0.00 0.00 0.00 0.00 0.00 0.00 0.00 0.00 0.00 0.00 0.00 0.00 0.00 0.00 0.00 0.00 0.00
0.00 0.00 0.00 0.00 0.00 0.00 0.00 0.00 0.00 0.00 0.00 0.00 0.00 0.00 0.00 0.00 0.00 0.00 0.00 0.00 0.00 0.00 0.00 0.00 0.00 0.00 0.00 0.00 0.00 0.00 0.00 0.00 0.01 0.01 0.00 0.00 0.00 0.00 0.00 0.00 0.00 0.00 0.00 0.00
0.00 0.00 0.00 0.00 0.00 0.00 0.00 0.00 0.00 0.00 0.00 0.00 0.00 0.00 0.00 0.00 0.00 0.00 0.00 0.00 0.00 0.00 0.00 0.00 0.00 0.00 0.00 0.00 0.00 0.00 0.00 0.00 0.00 0.00 0.00 0.00 0.00 0.00 0.00 0.00 0.00 0.00 0.00 0.00
0.00 0.00 0.00 0.00 0.00 0.00 0.00 0.00 0.00 0.00 0.00 0.00 0.00 0.00 0.00 0.00 0.00 0.00 0.00 0.00 0.00 0.00 0.00 0.00 0.00 0.00 0.00 0.00 0.00 0.00 0.00 0.00 0.00 0.00 0.00 0.00 0.00 0.00 0.00 0.00 0.00 0.00 0.00 0.00
0.00 0.00 0.00 0.00 0.00 0.00 0.00 0.00 0.00 0.00 0.00 0.01 0.00 0.00 0.00 0.00 0.00 0.00 0.00 0.00 0.00 0.00 0.00 0.00 0.00 0.00 0.00 0.00 0.00 0.00 0.00 0.00 0.00 0.00 0.00 0.00 0.00 0.00 0.00 0.00 0.00 0.00 0.00 0.00
0.00 0.00 0.00 0.00 0.00 0.00 0.00 0.00 0.00 0.00 0.00 0.00 0.00 0.00 0.00 0.00 0.00 0.03 0.01 0.02 0.00 0.00 0.00 0.00 0.00 0.00 0.02 0.01 0.00 0.00 0.00 0.00 0.00 0.00 0.00 0.00 0.00 0.00 0.00 0.00 0.00 0.00 0.00 0.00
0.00 0.00 0.00 0.00 0.00 0.00 0.00 0.00 0.00 0.00 0.00 0.00 0.00 0.00 0.01 0.00 0.00 0.00 0.02 0.06 0.04 0.01 0.00 0.00 0.00 0.01 0.01 0.00 0.02 0.02 0.03 0.03 0.00 0.00 0.00 0.00 0.00 0.00 0.00 0.00 0.00 0.00 0.00 0.00
0.00 0.00 0.00 0.01 0.00 0.00 0.00 0.01 0.00 0.00 0.00 0.00 0.00 0.00 0.00 0.00 0.01 0.04 0.04 0.07 0.06 0.05 0.02 0.03 0.02 0.02 0.01 0.03 0.03 0.01 0.01 0.03 0.02 0.04 0.05 0.09 0.10 0.04 0.00 0.00 0.00 0.00 0.00 0.00
0.00 0.00 0.00 0.00 0.00 0.01 0.03 0.04 0.01 0.01 0.00 0.00 0.00 0.01 0.02 0.01 0.04 0.05 0.04 0.05 0.04 0.03 0.03 0.02 0.04 0.05 0.01 0.00 0.00 0.00 0.00 0.00 0.00 0.01 0.01 0.05 0.09 0.07 0.04 0.01 0.00 0.00 0.00 0.00
0.00 0.00 0.00 0.00 0.01 0.02 0.02 0.01 0.02 0.01 0.02 0.03 0.00 0.02 0.03 0.06 0.02 0.01 0.00 0.01 0.03 0.02 0.01 0.01 0.01 0.01 0.00 0.00 0.00 0.00 0.00 0.00 0.00 0.00 0.00 0.02 0.03 0.05 0.05 0.04 0.06 0.05 0.01 0.00
0.00 0.00 0.00 0.00 0.01 0.01 0.00 0.01 0.02 0.03 0.02 0.02 0.01 0.01 0.04 0.04 0.01 0.01 0.01 0.01 0.01 0.01 0.01 0.00 0.00 0.00 0.00 0.00 0.00 0.00 0.02 0.02 0.03 0.06 0.10 0.12 0.09 0.08 0.09 0.04 0.07 0.11 0.12 0.03
0.00 0.00 0.00 0.00 0.00 0.00 0.00 0.02 0.02 0.01 0.01 0.00 0.00 0.03 0.07 0.02 0.02 0.01 0.01 0.01 0.01 0.00 0.00 0.00 0.00 0.00 0.00 0.00 0.00 0.01 0.01 0.01 0.03 0.08 0.14 0.15 0.14 0.09 0.09 0.06 0.13 0.07 0.08 0.08
0.00 0.00 0.00 0.00 0.00 0.00 0.00 0.00 0.00 0.00 0.00 0.00 0.01 0.06 0.05 0.02 0.00 0.00 0.01 0.00 0.00 0.00 0.00 0.00 0.00 0.00 0.00 0.01 0.01 0.01 0.00 0.02 0.08 0.12 0.09 0.07 0.09 0.10 0.05 0.02 0.04 0.09 0.10 0.08
0.00 0.00 0.00 0.00 0.00 0.00 0.00 0.00 0.00 0.00 0.00 0.00 0.05 0.05 0.01 0.00 0.00 0.00 0.00 0.00 0.00 0.00 0.00 0.01 0.02 0.03 0.05 0.06 0.03 0.04 0.04 0.03 0.06 0.08 0.06 0.06 0.06 0.02 0.02 0.07 0.13 0.14 0.13 0.11
0.00 0.00 0.00 0.00 0.00 0.00 0.00 0.00 0.00 0.00 0.00 0.00 0.01 0.02 0.01 0.00 0.01 0.02 0.00 0.01 0.00 0.00 0.02 0.05 0.06 0.10 0.11 0.11 0.10 0.12 0.05 0.04 0.06 0.07 0.03 0.03 0.02 0.03 0.12 0.18 0.17 0.11 0.09 0.05
MSLP
1020.97 1020.15 1019.25 1018.26 1017.18 1015.40 1012.27 1010.20 1006.87 1007.59 1007.68 1006.86 1004.96 1003.38 1002.37 1003.26 1002.46 1002.32 1001.97 1001.43 1000.64 999.65 998.90 998.50 998.17 997.79 997.93 998.40 998.93 999.04 999.33 998.97 998.44 998.13 998.12 998.34 998.12 997.76 997.99 998.03 998.21 997.79 997.10 995.81
1021.15 1020.30 1019.40 1018.40 1017.67 1017.27 1015.15 1010.40 1007.41 1007.16 1007.15 1005.28 1003.63 1003.06 1003.29 1003.22 1002.68 1002.36 1001.99 1001.58 1001.09 1000.55 1000.14 999.61 999.04 998.37 999.16 999.58 999.97 999.91 999.65 999.40 998.74 998.00 997.57 997.25 997.40 997.95 997.84 997.34 997.13 996.70 996.37 995.41
1021.29 1020.52 1019.64 1018.71 1017.65 1017.28 1016.33 1010.96 1007.08 1006.23 1006.60 1005.67 1005.10 1003.77 1003.33 1002.97 1003.26 1003.44 1003.03 1002.67 1002.03 1001.77 1001.02 1000.54 999.76 999.09 999.24 1000.42 1000.74 1001.44 1000.85 999.63 998.78 997.69 996.86 996.83 997.42 997.60 997.93 997.58 997.00 996.64 996.24 995.80
1021.41 1020.80 1020.02 1018.93 1017.65 1016.46 1015.98 1010.85 1008.15 1008.34 1005.70 1005.30 1005.38 1004.89 1004.45 1003.76 1003.34 1003.46 1003.62 1003.21 1002.78 1002.16 1001.40 1000.81 1000.17 1000.24 999.95 1000.58 1001.47 1001.76 1001.36 1000.35 999.92 998.97 998.24 997.80 997.88 997.92 998.07 997.87 997.70 997.36 996.86 996.04
1021.60 1020.96 1020.27 1019.41 1018.04 1016.22 1014.25 1012.34 1011.05 1009.52 1008.11 1007.10 1006.78 1005.81 1005.14 1004.46 1004.15 1003.88 1003.90 1003.65 1003.29 1003.16 1002.85 1002.22 1001.20 1001.08 1000.54 1000.24 1000.67 1001.51 1001.32 1000.58 1000.39 999.51 999.08 998.71 998.22 998.36 998.22 998.09 998.10 997.99 997.73 997.02
1021.81 1021.28 1020.65 1019.89 1018.97 1017.09 1014.35 1013.92 1012.57 1011.66 1008.77 1007.38 1006.66 1005.58 1005.33 1005.44 1005.54 1005.45 1005.18 1004.88 1004.77 1004.31 1004.13 1004.26 1003.39 1003.09 1002.26 1001.72 1001.23 1001.10 1001.23 1000.95 1000.61 999.72 999.96 999.14 998.36 998.62 998.44 998.19 998.00 997.95 997.46 997.29
1021.89 1021.50 1021.00 1020.40 1019.81 1019.41 1017.18 1015.65 1014.59 1011.97 1009.02 1008.08 1007.28 1007.17 1007.43 1007.25 1006.88 1006.70 1006.09 1006.00 1005.87 1005.49 1006.00 1005.31 1004.46 1003.76 1003.05 1002.57 1002.18 1002.06 1002.00 1001.81 1001.35 1000.83 1000.58 998.94 998.68 998.45 998.31 998.15 998.04 998.02 997.83 997.56
1021.92 1021.63 1021.21 1020.72 1020.26 1019.78 1017.78 1016.38 1015.37 1013.22 1010.84 1008.99 1008.57 1008.18 1008.07 1007.93 1007.73 1007.61 1007.38 1007.00 1006.77 1006.47 1006.59 1005.61 1004.54 1003.62 1002.87 1002.27 1002.17 1002.16 1002.30 1002.22 1001.74 1001.43 1000.53 999.52 998.95 998.80 998.78 998.53 998.36 998.95 998.86 998.54
1021.90 1021.68 1021.38 1020.95 1020.52 1020.08 1018.69 1016.86 1016.92 1015.06 1012.77 1010.00 1010.31 1009.74 1009.07 1008.47 1007.64 1007.06 1006.83 1007.24 1007.56 1007.26 1006.45 1005.32 1004.29 1003.20 1002.56 1001.70 1001.52 1001.80 1002.00 1002.13 1002.21 1001.77 1000.95 999.51 999.29 999.14 999.67 1000.10 999.16 999.47 999.72 1000.01
1021.91 1021.70 1021.41 1021.14 1020.79 1020.35 1019.68 1017.11 1017.53 1016.05 1013.82 1011.35 1011.31 1010.14 1010.09 1009.51 1009.01 1008.05 1007.21 1007.17 1007.45 1007.23 1006.24 1004.99 1003.95 1002.98 1002.69 1002.08 1001.70 1001.51 1001.82 1002.05 1001.81 1001.45 1001.01 1000.20 1000.41 1000.14 1000.45 1000.88 1000.74 1001.13 1001.53 1001.68
1021.85 1021.70 1021.46 1021.21 1020.98 1020.60 1019.78 1017.17 1017.80 1017.19 1014.70 1012.61 1012.09 1011.71 1011.35 1010.44 1009.95 1009.08 1008.11 1008.11 1007.15 1006.89 1006.11 1005.19 1003.99 1003.15 1002.64 1002.35 1002.25 1002.21 1002.30 1002.77 1002.42 1001.97 1001.61 1000.63 1000.64 1000.54 1000.66 1001.51 1001.96 1002.34 1002.88 1003.33
1021.72 1021.58 1021.42 1021.21 1021.06 1020.77 1020.30 1017.60 1017.27 1017.57 1016.50 1013.55 1012.99 1012.60 1012.31 1011.80 1011.31 1010.76 1009.74 1008.72 1008.31 1007.19 1006.46 1005.44 1004.66 1003.72 1003.16 1003.09 1002.45 1002.54 1002.89 1002.83 1002.47 1002.21 1002.25 1003.02 1002.47 1002.24 1002.09 1002.68 1002.66 1002.90 1003.33 1003.68
1021.67 1021.58 1021.38 1021.16 1020.97 1020.86 1020.64 1018.96 1017.74 1017.04 1015.27 1012.89 1011.37 1010.41 1010.80 1011.45 1011.48 1011.54 1010.76 1009.44 1008.79 1008.47 1008.50 1007.76 1006.13 1005.06 1004.67 1003.92 1003.77 1003.70 1003.78 1003.65 1003.89 1003.83 1002.16 1002.55 1003.01 1003.51 1002.91 1002.88 1003.20 1003.29 1003.90 1004.11
1021.56 1021.43 1021.24 1021.05 1020.88 1020.72 1020.49 1018.75 1017.65 1017.38 1015.98 1013.33 1010.20 1010.70 1010.91 1010.73 1010.82 1011.04 1011.03 1010.54 1010.03 1009.78 1009.13 1008.18 1007.10 1006.03 1005.62 1005.19 1004.77 1004.47 1003.88 1003.79 1004.04 1004.02 1004.21 1003.19 1002.50 1003.33 1003.09 1003.27 1003.84 1004.07 1004.33 1004.41
1021.43 1021.35 1021.15 1020.94 1020.71 1020.44 1019.74 1018.10 1017.28 1017.58 1017.44 1014.26 1011.81 1010.61 1009.99 1010.18 1010.46 1010.54 1010.73 1010.57 1010.23 1009.71 1008.99 1008.04 1007.16 1006.78 1006.73 1006.22 1005.72 1004.64 1004.23 1003.62 1003.43 1002.72 1003.17 1003.30 1003.19 1003.39 1003.72 1004.11 1004.11 1004.14 1004.13 1004.07
1021.24 1021.16 1020.93 1020.72 1020.57 1020.25 1018.65 1017.10 1017.79 1017.51 1017.49 1016.53 1012.82 1010.20 1009.85 1009.90 1010.06 1010.23 1010.24 1010.06 1009.86 1009.59 1008.88 1007.98 1007.45 1007.31 1007.54 1006.85 1005.25 1004.74 1004.18 1003.97 1003.64 1003.31 1003.45 1003.04 1002.98 1003.11 1003.45 1003.49 1003.82 1003.83 1003.72 1003.54
1021.03 1020.88 1020.69 1020.49 1020.35 1019.62 1018.53 1018.33 1018.75 1018.40 1018.26 1017.07 1013.70 1009.34 1009.27 1009.79 1009.77 1009.50 1009.43 1009.42 1009.33 1009.16 1008.55 1008.25 1007.91 1007.80 1007.86 1007.16 1005.86 1005.41 1004.71 1004.16 1003.70 1003.36 1003.30 1003.13 1003.03 1002.89 1003.14 1003.19 1003.09 1003.09 1003.09 1003.00
1020.71 1020.56 1020.42 1020.25 1020.05 1019.71 1018.89 1017.89 1018.93 1018.63 1017.85 1016.67 1014.29 1009.93 1009.22 1009.40 1009.00 1009.70 1009.70 1009.21 1009.05 1008.92 1008.56 1008.09 1007.82 1007.92 1007.99 1006.92 1005.88 1005.20 1004.90 1004.16 1003.47 1003.07 1002.91 1002.77 1002.64 1002.78 1002.80 1002.69 1002.17 1002.25 1002.11 1002.06
1020.37 1020.19 1020.04 1019.34 1019.27 1017.85 1017.86 1018.63 1018.80 1018.73 1018.27 1016.33 1014.11 1011.47 1010.02 1009.46 1009.04 1009.08 1008.96 1009.71 1009.38 1008.72 1007.99 1007.86 1008.00 1007.02 1006.94 1006.17 1006.06 1006.11 1005.90 1005.53 1004.91 1004.14 1003.49 1002.91 1002.45 1002.46 1002.02 1001.96 1001.77 1001.46 1001.36 1001.20
1019.96 1019.57 1018.86 1017.90 1017.08 1018.32 1018.54 1018.62 1018.05 1017.61 1016.92 1016.05 1013.89 1011.51 1010.26 1010.18 1009.73 1009.61 1009.78 1009.47 1009.47 1008.63 1007.81 1007.51 1007.44 1006.92 1007.98 1007.95 1007.55 1007.18 1006.81 1006.08 1005.53 1004.56 1003.92 1003.56 1003.00 1002.71 1002.20 1001.52 1000.90 1000.69 1000.45 1000.21
1019.08 1018.36 1017.76 1016.91 1017.85 1017.48 1017.07 1016.53 1016.46 1015.40 1014.76 1013.91 1012.11 1011.19 1010.78 1010.58 1010.84 1010.88 1011.09 1010.84 1010.18 1009.79 1009.85 1009.50 1008.66 1008.38 1008.65 1008.25 1008.00 1007.64 1007.28 1006.53 1005.31 1004.57 1003.75 1003.46 1002.94 1002.52 1001.97 1001.30 1000.90 1000.46 1000.16 999.97
1019.64 1019.37 1018.10 1016.91 1016.36 1016.16 1015.44 1014.60 1014.22 1013.34 1012.11 1011.79 1010.83 1010.42 1010.54 1011.30 1011.57 1011.89 1012.34 1012.03 1011.45 1010.88 1011.30 1010.79 1009.71 1008.84 1008.48 1008.34 1007.88 1007.08 1006.59 1005.86 1005.08 1004.22 1003.02 1002.32 1002.21 1001.75 1001.44 1001.31 1000.90 1000.42 1000.03 999.78
1018.70 1018.56 1017.31 1016.06 1015.58 1015.03 1013.92 1012.58 1011.78 1011.25 1011.28 1011.04 1010.44 1010.39 1010.86 1011.89 1012.71 1012.89 1012.93 1012.50 1011.80 1011.75 1011.32 1010.75 1009.48 1008.35 1008.07 1007.90 1007.46 1006.49 1005.78 1005.00 1004.09 1003.03 1002.12 1001.71 1001.18 1000.88 1000.64 1000.49 1000.12 999.94 999.76 999.58
1018.07 1017.11 1016.56 1014.92 1013.58 1012.48 1011.98 1011.72 1011.28 1010.85 1010.79 1010.43 1009.90 1010.45 1011.51 1012.35 1012.78 1012.90 1012.81 1012.28 1012.15 1011.54 1011.28 1010.10 1008.37 1008.15 1007.78 1006.93 1006.59 1006.11 1004.89 1004.20 1003.37 1002.20 1001.39 1000.76 1000.30 1000.01 999.79 999.74 999.59 999.41 999.03 998.78
1017.33 1016.01 1014.73 1012.61 1011.50 1011.30 1011.30 1011.17 1011.10 1011.02 1010.77 1009.89 1009.83 1010.68 1011.20 1012.07 1012.64 1012.69 1012.52 1012.04 1011.53 1011.18 1010.25 1008.74 1007.79 1007.01 1006.34 1005.65 1005.45 1005.15 1004.48 1003.71 1002.78 1001.93 1001.14 1000.40 999.88 999.68 999.35 999.38 999.20 999.06 998.54 998.39
1016.38 1015.07 1013.26 1011.76 1011.13 1010.37 1011.19 1011.15 1011.07 1010.72 1010.01 1010.16 1010.19 1010.63 1010.99 1011.93 1012.18 1011.90 1011.21 1011.03 1010.35 1009.24 1008.51 1007.63 1006.96 1006.25 1005.53 1005.01 1004.65 1004.26 1003.68 1003.15 1002.40 1001.59 1000.78 1000.04 999.61 999.37 999.37 999.10 998.67 998.42 998.31 998.18
1016.09 1013.66 1012.57 1011.86 1011.20 1010.66 1010.94 1010.99 1010.98 1010.42 1009.99 1010.21 1010.25 1010.48 1010.57 1011.63 1011.05 1010.45 1010.35 1009.43 1008.82 1008.14 1007.51 1006.85 1006.53 1005.89 1005.42 1004.85 1004.35 1003.83 1003.28 1002.75 1001.97 1001.30 1000.76 1000.22 999.99 999.87 999.59 999.18 998.71 998.46 998.17 998.09
Thickness
5676 5682 5689 5696 5704 5718 5742 5756 5756 5770 5772 5748 5767 5767 5781 5751 5779 5788 5782 5786 5788 5792 5801 5798 5799 5804 5812 5823 5819 5797 5810 5799 5782 5797 5823 5826 5820 5815 5812 5784 5774 5796 5797 5807
5669 5676 5682 5689 5694 5697 5713 5743 5756 5770 5764 5743 5761 5772 5765 5769 5770 5773 5774 5774 5785 5791 5782 5774 5791 5803 5803 5805 5800 5791 5802 5782 5767 5782 5811 5826 5806 5809 5814 5823 5822 5800 5790 5811
5662 5667 5674 5681 5689 5691 5700 5734 5743 5756 5752 5757 5744 5750 5753 5754 5766 5757 5764 5763 5773 5767 5767 5779 5775 5786 5793 5792 5791 5772 5787 5785 5779 5777 5800 5814 5790 5799 5804 5807 5795 5800 5805 5815
5656 5660 5665 5674 5683 5692 5696 5731 5735 5728 5739 5743 5738 5742 5740 5738 5741 5755 5755 5748 5753 5754 5750 5761 5764 5773 5779 5777 5764 5770 5772 5754 5770 5783 5796 5799 5792 5790 5791 5786 5794 5780 5798 5808
5648 5653 5657 5664 5674 5688 5701 5702 5702 5717 5719 5725 5717 5713 5723 5728 5734 5739 5734 5733 5743 5744 5736 5745 5746 5752 5764 5762 5769 5758 5767 5746 5758 5756 5777 5779 5773 5780 5784 5786 5785 5783 5787 5789
5640 5643 5647 5652 5658 5671 5690 5688 5694 5688 5704 5713 5712 5718 5721 5717 5719 5721 5726 5723 5721 5721 5724 5731 5743 5746 5752 5753 5750 5748 5747 5745 5740 5732 5755 5762 5744 5763 5768 5774 5785 5782 5769 5793
5632 5634 5636 5639 5641 5643 5656 5663 5666 5678 5691 5699 5700 5700 5696 5692 5697 5693 5705 5709 5701 5712 5719 5723 5728 5729 5732 5735 5737 5743 5726 5726 5730 5718 5732 5702 5756 5784 5780 5769 5776 5782 5783 5793
5622 5623 5624 5626 5627 5630 5642 5650 5652 5663 5669 5688 5684 5686 5682 5684 5685 5679 5679 5686 5695 5703 5694 5688 5688 5698 5704 5714 5724 5724 5727 5717 5707 5698 5707 5729 5747 5758 5754 5752 5753 5767 5766 5775
5614 5614 5614 5615 5616 5617 5626 5637 5633 5642 5649 5668 5662 5661 5668 5665 5672 5676 5679 5682 5682 5680 5675 5677 5665 5670 5688 5693 5703 5719 5717 5715 5699 5696 5682 5687 5733 5755 5753 5740 5717 5757 5757 5750
5605 5604 5604 5603 5603 5604 5606 5622 5616 5624 5632 5655 5648 5652 5647 5657 5654 5657 5666 5666 5661 5667 5660 5663 5667 5672 5688 5673 5677 5688 5685 5687 5680 5687 5682 5700 5725 5738 5738 5687 5708 5730 5729 5728
5596 5594 5592 5591 5590 5590 5593 5610 5602 5603 5619 5632 5635 5635 5630 5638 5638 5635 5649 5646 5652 5651 5648 5655 5665 5667 5676 5673 5679 5675 5672 5660 5664 5678 5670 5669 5724 5720 5699 5704 5706 5709 5709 5709
5587 5584 5582 5580 5577 5577 5578 5597 5594 5590 5592 5616 5620 5620 5621 5622 5623 5622 5628 5632 5631 5644 5643 5654 5657 5658 5666 5658 5652 5679 5654 5667 5666 5676 5670 5674 5689 5691 5698 5695 5691 5695 5695 5699
5576 5573 5571 5569 5567 5565 5564 5574 5580 5582 5594 5611 5621 5625 5624 5619 5615 5615 5608 5621 5628 5626 5628 5626 5638 5634 5648 5637 5641 5646 5653 5659 5646 5641 5678 5677 5671 5675 5681 5685 5680 5683 5684 5685
5565 5562 5560 5558 5556 5555 5554 5564 5570 5569 5577 5591 5618 5617 5610 5616 5613 5609 5607 5607 5612 5612 5615 5614 5619 5623 5636 5629 5634 5634 5647 5647 5638 5634 5642 5659 5670 5666 5666 5665 5664 5665 5671 5672
5555 5551 5550 5548 5547 5546 5549 5558 5562 5558 5557 5579 5594 5607 5613 5611 5606 5603 5601 5599 5598 5599 5600 5606 5608 5618 5615 5621 5624 5627 5639 5634 5629 5635 5644 5642 5643 5649 5651 5646 5649 5657 5659 5661
5547 5544 5543 5541 5539 5539 5548 5559 5551 5551 5551 5552 5578 5607 5603 5604 5601 5597 5595 5597 5596 5595 5596 5602 5609 5614 5603 5597 5612 5628 5633 5635 5636 5631 5637 5640 5642 5644 5645 5643 5644 5649 5653 5658
5542 5539 5537 5536 5535 5537 5549 5549 5541 5541 5540 5543 5567 5604 5605 5600 5597 5598 5596 5597 5595 5595 5596 5595 5597 5598 5596 5597 5599 5613 5622 5626 5628 5631 5629 5625 5630 5629 5635 5636 5641 5646 5651 5654
5538 5536 5535 5534 5533 5534 5540 5543 5535 5535 5539 5546 5557 5594 5595 5601 5593 5579 5589 5589 5592 5591 5591 5597 5594 5595 5589 5591 5608 5615 5616 5621 5624 5626 5629 5628 5630 5630 5630 5635 5643 5643 5646 5650
5536 5535 5535 5537 5538 5550 5546 5535 5533 5531 5534 5543 5558 5573 5576 5597 5594 5593 5592 5581 5576 5592 5590 5591 5593 5601 5593 5607 5606 5599 5600 5600 5603 5613 5620 5624 5626 5625 5633 5635 5638 5641 5643 5648
5537 5539 5544 5546 5554 5539 5535 5535 5536 5540 5543 5544 5556 5582 5580 5586 5585 5585 5582 5586 5579 5583 5598 5602 5597 5602 5587 5587 5592 5593 5594 5598 5600 5603 5606 5610 5614 5617 5624 5632 5641 5644 5646 5650
5544 5548 5547 5552 5542 5545 5544 5546 5544 5554 5554 5561 5577 5581 5575 5585 5570 5571 5574 5570 5579 5575 5576 5575 5579 5582 5577 5583 5581 5583 5583 5588 5599 5605 5611 5612 5615 5617 5623 5630 5635 5640 5642 5645
5536 5535 5540 5548 5548 5548 5552 5558 5559 5565 5571 5577 5584 5586 5585 5575 5575 5566 5561 5561 5569 5572 5564 5562 5569 5580 5580 5579 5578 5584 5586 5589 5594 5603 5613 5620 5619 5623 5625 5625 5629 5635 5641 5644
5536 5538 5541 5548 5547 5545 5554 5563 5573 5577 5578 5581 5587 5582 5581 5572 5560 5560 5558 5560 5566 5567 5563 5564 5574 5585 5582 5582 5584 5591 5596 5599 5603 5611 5618 5621 5625 5628 5630 5629 5635 5638 5640 5644
5538 5541 5530 5553 5556 5569 5571 5570 5574 5581 5581 5584 5593 5583 5571 5565 5561 5561 5559 5567 5563 5562 5555 5566 5591 5585 5585 5589 5590 5592 5600 5605 5609 5618 5622 5626 5630 5632 5636 5635 5637 5638 5643 5649
5537 5546 5539 5567 5580 5579 5577 5577 5576 5577 5581 5590 5589 5581 5580 5569 5563 5564 5562 5563 5560 5559 5564 5580 5589 5593 5593 5598 5600 5599 5601 5606 5612 5618 5621 5628 5633 5633 5636 5636 5638 5639 5646 5649
5540 5548 5558 5574 5574 5580 5570 5571 5570 5580 5587 5586 5586 5577 5576 5565 5566 5568 5574 5567 5566 5583 5587 5595 5601 5604 5606 5608 5608 5608 5609 5610 5614 5619 5625 5631 5634 5636 5636 5639 5643 5647 5649 5652
5530 5553 5563 5566 5569 5572 5568 5569 5569 5582 5582 5573 5579 5572 5576 5568 5572 5576 5577 5583 5591 5597 5601 5605 5603 5606 5606 5609 5612 5612 5613 5616 5621 5625 5628 5632 5635 5636 5637 5639 5645 5649 5654 5657